Time,TemperatureF,DewpointF,PressureIn,WindDirection,WindDirectionDegrees,WindSpeedMPH,WindSpeedGustMPH,Humidity,HourlyPrecipIn,Conditions,Clouds,dailyrainin,SoftwareType,DateUTC
2013-10-27 00:03:00,-999.0,-99.9,29.85,West,278,11.0,-999.0,-999,-99.99,,,-99.99,,2013-10-27 04:03:00,
2013-10-27 00:24:00,57.0,-99.9,29.85,NW,306,11.0,-999.0,-999,-99.99,,,-99.99,,2013-10-27 04:24:00,
2013-10-27 00:34:00,57.0,-99.9,29.85,NW,306,11.0,-999.0,-999,-99.99,,,-99.99,,2013-10-27 04:34:00,
2013-10-27 00:54:00,56.0,-99.9,29.84,WNW,299,9.0,-999.0,-999,-99.99,,,-99.99,,2013-10-27 04:54:00,
2013-10-27 01:04:00,56.0,-99.9,29.84,WNW,299,9.0,-999.0,-999,-99.99,,,-99.99,,2013-10-27 05:04:00,
2013-10-27 01:23:00,56.0,-99.9,29.84,West,280,13.0,-999.0,-999,-99.99,,,-99.99,,2013-10-27 05:23:00,
2013-10-27 01:34:00,56.0,-99.9,29.84,West,280,13.0,-999.0,-999,-99.99,,,-99.99,,2013-10-27 05:34:00,
2013-10-27 01:52:00,56.0,-99.9,29.83,NW,306,10.0,-999.0,-999,-99.99,,,-99.99,,2013-10-27 05:52:00,
2013-10-27 02:01:00,56.0,-99.9,29.83,NW,306,10.0,-999.0,-999,-99.99,,,-99.99,,2013-10-27 06:01:00,
2013-10-27 02:13:00,56.0,-99.9,29.83,NW,306,10.0,-999.0,-999,-99.99,,,-99.99,,2013-10-27 06:13:00,
2013-10-27 02:22:00,55.0,-99.9,29.83,WNW,300,10.0,-999.0,-999,-99.99,,,-99.99,,2013-10-27 06:22:00,
2013-10-27 02:33:00,55.0,-99.9,29.83,WNW,300,10.0,-999.0,-999,-99.99,,,-99.99,,2013-10-27 06:33:00,
2013-10-27 02:53:00,55.0,-99.9,29.82,West,275,6.0,-999.0,-999,-99.99,,,-99.99,,2013-10-27 06:53:00,
2013-10-27 03:02:00,55.0,-99.9,29.82,West,275,6.0,-999.0,-999,-99.99,,,-99.99,,2013-10-27 07:02:00,
2013-10-27 03:22:00,54.0,-99.9,29.81,WNW,301,6.0,-999.0,-999,-99.99,,,-99.99,,2013-10-27 07:22:00,
2013-10-27 03:32:00,54.0,-99.9,29.81,WNW,301,6.0,-999.0,-999,-99.99,,,-99.99,,2013-10-27 07:32:00,
2013-10-27 03:53:00,54.0,-99.9,29.80,NW,319,3.0,-999.0,-999,-99.99,,,-99.99,,2013-10-27 07:53:00,
2013-10-27 04:03:00,54.0,-99.9,29.80,NW,319,3.0,-999.0,-999,-99.99,,,-99.99,,2013-10-27 08:03:00,
2013-10-27 04:11:00,54.0,-99.9,29.80,NW,319,3.0,-999.0,-999,-99.99,,,-99.99,,2013-10-27 08:11:00,
2013-10-27 04:22:00,54.0,-99.9,29.79,NW,316,12.0,-999.0,-999,-99.99,,,-99.99,,2013-10-27 08:22:00,
2013-10-27 04:32:00,54.0,-99.9,29.79,NW,316,12.0,-999.0,-999,-99.99,,,-99.99,,2013-10-27 08:32:00,
2013-10-27 04:42:00,54.0,-99.9,29.79,NW,316,12.0,-999.0,-999,-99.99,,,-99.99,,2013-10-27 08:42:00,
2013-10-27 04:52:00,53.0,-99.9,29.80,WNW,299,6.0,-999.0,-999,-99.99,,,-99.99,,2013-10-27 08:52:00,
2013-10-27 05:02:00,53.0,-99.9,29.80,WNW,299,6.0,-999.0,-999,-99.99,,,-99.99,,2013-10-27 09:02:00,
2013-10-27 05:22:00,53.0,-99.9,29.80,NW,326,4.0,-999.0,-999,-99.99,,,-99.99,,2013-10-27 09:22:00,
2013-10-27 05:33:00,53.0,-99.9,29.80,NW,326,4.0,-999.0,-999,-99.99,,,-99.99,,2013-10-27 09:33:00,
2013-10-27 05:54:00,52.0,-99.9,29.80,North,349,12.0,-999.0,-999,-99.99,,,-99.99,,2013-10-27 09:54:00,
2013-10-27 06:03:00,52.0,-99.9,29.80,North,349,12.0,-999.0,-999,-99.99,,,-99.99,,2013-10-27 10:03:00,
2013-10-27 06:23:00,51.0,-99.9,29.82,NW,316,16.0,-999.0,-999,-99.99,,,-99.99,,2013-10-27 10:23:00,
2013-10-27 06:33:00,51.0,-99.9,29.82,NW,316,16.0,-999.0,-999,-99.99,,,-99.99,,2013-10-27 10:33:00,
2013-10-27 06:53:00,49.0,-99.9,29.82,NW,315,6.0,-999.0,-999,-99.99,,,-99.99,,2013-10-27 10:53:00,
2013-10-27 07:03:00,49.0,-99.9,29.82,NW,315,6.0,-999.0,-999,-99.99,,,-99.99,,2013-10-27 11:03:00,
2013-10-27 07:12:00,49.0,-99.9,29.82,NW,315,6.0,-999.0,-999,-99.99,,,-99.99,,2013-10-27 11:12:00,
2013-10-27 07:22:00,48.0,-99.9,29.83,NW,304,6.0,-999.0,-999,-99.99,,,-99.99,,2013-10-27 11:22:00,
2013-10-27 07:33:00,48.0,-99.9,29.83,NW,304,6.0,-999.0,-999,-99.99,,,-99.99,,2013-10-27 11:33:00,
2013-10-27 07:52:00,47.0,-99.9,29.83,West,272,5.0,-999.0,-999,-99.99,,,-99.99,,2013-10-27 11:52:00,
2013-10-27 08:01:00,47.0,-99.9,29.83,West,272,5.0,-999.0,-999,-99.99,,,-99.99,,2013-10-27 12:01:00,
2013-10-27 08:22:00,47.0,-99.9,29.85,WNW,282,5.0,-999.0,-999,-99.99,,,-99.99,,2013-10-27 12:22:00,
2013-10-27 08:32:00,47.0,-99.9,29.85,WNW,282,5.0,-999.0,-999,-99.99,,,-99.99,,2013-10-27 12:32:00,
2013-10-27 08:52:00,49.0,-99.9,29.85,WSW,251,5.0,-999.0,-999,-99.99,,,-99.99,,2013-10-27 12:52:00,
2013-10-27 09:02:00,49.0,-99.9,29.85,WSW,251,5.0,-999.0,-999,-99.99,,,-99.99,,2013-10-27 13:02:00,
2013-10-27 09:12:00,49.0,-99.9,29.85,WSW,251,5.0,-999.0,-999,-99.99,,,-99.99,,2013-10-27 13:12:00,
2013-10-27 09:22:00,50.0,-99.9,29.86,WNW,293,6.0,-999.0,-999,-99.99,,,-99.99,,2013-10-27 13:22:00,
2013-10-27 09:32:00,50.0,-99.9,29.86,WNW,293,6.0,-999.0,-999,-99.99,,,-99.99,,2013-10-27 13:32:00,
2013-10-27 09:52:00,52.0,-99.9,29.85,NW,309,10.0,-999.0,-999,-99.99,,,-99.99,,2013-10-27 13:52:00,
2013-10-27 10:02:00,52.0,-99.9,29.85,NW,309,10.0,-999.0,-999,-99.99,,,-99.99,,2013-10-27 14:02:00,
2013-10-27 10:22:00,53.0,-99.9,29.85,NW,309,6.0,-999.0,-999,-99.99,,,-99.99,,2013-10-27 14:22:00,
2013-10-27 10:32:00,53.0,-99.9,29.85,NW,309,6.0,-999.0,-999,-99.99,,,-99.99,,2013-10-27 14:32:00,
2013-10-27 10:52:00,54.0,-99.9,29.85,NNW,327,12.0,-999.0,-999,-99.99,,,-99.99,,2013-10-27 14:52:00,
2013-10-27 11:01:00,54.0,-99.9,29.85,NNW,327,12.0,-999.0,-999,-99.99,,,-99.99,,2013-10-27 15:01:00,
2013-10-27 11:22:00,54.0,-99.9,29.85,NW,309,8.0,-999.0,-999,-99.99,,,-99.99,,2013-10-27 15:22:00,
2013-10-27 11:34:00,54.0,-99.9,29.85,NW,309,8.0,-999.0,-999,-99.99,,,-99.99,,2013-10-27 15:34:00,
2013-10-27 11:45:00,54.0,-99.9,29.85,NW,309,8.0,-999.0,-999,-99.99,,,-99.99,,2013-10-27 15:45:00,
2013-10-27 11:54:00,55.0,-99.9,29.85,NNW,328,10.0,-999.0,-999,-99.99,,,-99.99,,2013-10-27 15:54:00,
2013-10-27 12:04:00,55.0,-99.9,29.85,NNW,328,10.0,-999.0,-999,-99.99,,,-99.99,,2013-10-27 16:04:00,
2013-10-27 12:24:00,55.0,-99.9,29.85,West,278,12.0,-999.0,-999,-99.99,,,-99.99,,2013-10-27 16:24:00,
2013-10-27 12:34:00,55.0,-99.9,29.85,West,278,12.0,-999.0,-999,-99.99,,,-99.99,,2013-10-27 16:34:00,
2013-10-27 12:54:00,55.0,-99.9,29.85,NW,324,7.0,-999.0,-999,-99.99,,,-99.99,,2013-10-27 16:54:00,
2013-10-27 13:04:00,55.0,-99.9,29.85,NW,324,7.0,-999.0,-999,-99.99,,,-99.99,,2013-10-27 17:04:00,
2013-10-27 13:22:00,56.0,-99.9,29.83,NNW,342,9.0,-999.0,-999,-99.99,,,-99.99,,2013-10-27 17:22:00,
2013-10-27 13:34:00,56.0,-99.9,29.83,NNW,342,9.0,-999.0,-999,-99.99,,,-99.99,,2013-10-27 17:34:00,
2013-10-27 13:53:00,56.0,-99.9,29.83,NW,322,15.0,-999.0,-999,-99.99,,,-99.99,,2013-10-27 17:53:00,
2013-10-27 14:02:00,56.0,-99.9,29.83,NW,322,15.0,-999.0,-999,-99.99,,,-99.99,,2013-10-27 18:02:00,
2013-10-27 14:12:00,56.0,-99.9,29.83,NW,322,15.0,-999.0,-999,-99.99,,,-99.99,,2013-10-27 18:12:00,
2013-10-27 14:22:00,57.0,-99.9,29.83,NNW,345,15.0,-999.0,-999,-99.99,,,-99.99,,2013-10-27 18:22:00,
2013-10-27 14:32:00,57.0,-99.9,29.83,NNW,345,15.0,-999.0,-999,-99.99,,,-99.99,,2013-10-27 18:32:00,
2013-10-27 14:53:00,56.0,-99.9,29.83,NNW,331,12.0,-999.0,-999,-99.99,,,-99.99,,2013-10-27 18:53:00,
2013-10-27 15:02:00,56.0,-99.9,29.83,NNW,331,12.0,-999.0,-999,-99.99,,,-99.99,,2013-10-27 19:02:00,
2013-10-27 15:22:00,57.0,-99.9,29.83,NNW,335,14.0,-999.0,-999,-99.99,,,-99.99,,2013-10-27 19:22:00,
2013-10-27 15:32:00,57.0,-99.9,29.83,NNW,335,14.0,-999.0,-999,-99.99,,,-99.99,,2013-10-27 19:32:00,
2013-10-27 15:52:00,57.0,-99.9,29.84,NNW,329,10.0,-999.0,-999,-99.99,,,-99.99,,2013-10-27 19:52:00,
2013-10-27 16:02:00,57.0,-99.9,29.84,NNW,329,10.0,-999.0,-999,-99.99,,,-99.99,,2013-10-27 20:02:00,
2013-10-27 16:22:00,58.0,-99.9,29.85,NNW,338,11.0,-999.0,-999,-99.99,,,-99.99,,2013-10-27 20:22:00,
2013-10-27 16:32:00,58.0,-99.9,29.85,NNW,338,11.0,-999.0,-999,-99.99,,,-99.99,,2013-10-27 20:32:00,
2013-10-27 16:52:00,57.0,-99.9,29.86,NNW,336,10.0,-999.0,-999,-99.99,,,-99.99,,2013-10-27 20:52:00,
2013-10-27 17:02:00,57.0,-99.9,29.86,NNW,336,10.0,-999.0,-999,-99.99,,,-99.99,,2013-10-27 21:02:00,
2013-10-27 17:11:00,57.0,-99.9,29.86,NNW,336,10.0,-999.0,-999,-99.99,,,-99.99,,2013-10-27 21:11:00,
2013-10-27 17:22:00,57.0,-99.9,29.87,North,5,10.0,-999.0,-999,-99.99,,,-99.99,,2013-10-27 21:22:00,
2013-10-27 17:34:00,57.0,-99.9,29.87,North,5,10.0,-999.0,-999,-99.99,,,-99.99,,2013-10-27 21:34:00,
2013-10-27 17:54:00,56.0,-99.9,29.89,ENE,78,13.0,-999.0,-999,-99.99,,,-99.99,,2013-10-27 21:54:00,
2013-10-27 18:04:00,56.0,-99.9,29.89,ENE,78,13.0,-999.0,-999,-99.99,,,-99.99,,2013-10-27 22:04:00,
2013-10-27 18:24:00,55.0,-99.9,29.91,NNW,345,9.0,-999.0,-999,-99.99,,,-99.99,,2013-10-27 22:24:00,
2013-10-27 18:34:00,55.0,-99.9,29.91,NNW,345,9.0,-999.0,-999,-99.99,,,-99.99,,2013-10-27 22:34:00,
2013-10-27 18:54:00,54.0,-99.9,29.92,NNW,347,6.0,-999.0,-999,-99.99,,,-99.99,,2013-10-27 22:54:00,
2013-10-27 19:03:00,54.0,-99.9,29.92,NNW,347,6.0,-999.0,-999,-99.99,,,-99.99,,2013-10-27 23:03:00,
2013-10-27 19:12:00,54.0,-99.9,29.92,NNW,347,6.0,-999.0,-999,-99.99,,,-99.99,,2013-10-27 23:12:00,
2013-10-27 19:22:00,54.0,-99.9,29.94,North,352,6.0,-999.0,-999,-99.99,,,-99.99,,2013-10-27 23:22:00,
2013-10-27 19:33:00,54.0,-99.9,29.94,North,352,6.0,-999.0,-999,-99.99,,,-99.99,,2013-10-27 23:33:00,
2013-10-27 19:52:00,53.0,-99.9,29.95,NNW,327,5.0,-999.0,-999,-99.99,,,-99.99,,2013-10-27 23:52:00,
2013-10-27 20:02:00,53.0,-99.9,29.95,NNW,327,5.0,-999.0,-999,-99.99,,,-99.99,,2013-10-28 00:02:00,
2013-10-27 20:22:00,52.0,-99.9,29.97,NNW,337,8.0,-999.0,-999,-99.99,,,-99.99,,2013-10-28 00:22:00,
2013-10-27 20:32:00,52.0,-99.9,29.97,NNW,337,8.0,-999.0,-999,-99.99,,,-99.99,,2013-10-28 00:32:00,
2013-10-27 20:52:00,52.0,-99.9,29.97,NNW,330,9.0,-999.0,-999,-99.99,,,-99.99,,2013-10-28 00:52:00,
2013-10-27 21:02:00,52.0,-99.9,29.97,NNW,330,9.0,-999.0,-999,-99.99,,,-99.99,,2013-10-28 01:02:00,
2013-10-27 21:12:00,52.0,-99.9,29.97,NNW,330,9.0,-999.0,-999,-99.99,,,-99.99,,2013-10-28 01:12:00,
2013-10-27 21:22:00,51.0,-99.9,29.99,NNW,344,9.0,-999.0,-999,-99.99,,,-99.99,,2013-10-28 01:22:00,
2013-10-27 21:32:00,51.0,-99.9,29.99,NNW,344,9.0,-999.0,-999,-99.99,,,-99.99,,2013-10-28 01:32:00,
2013-10-27 21:42:00,51.0,-99.9,29.99,NNW,344,9.0,-999.0,-999,-99.99,,,-99.99,,2013-10-28 01:42:00,
2013-10-27 21:52:00,50.0,-99.9,30.00,NNW,335,8.0,-999.0,-999,-99.99,,,-99.99,,2013-10-28 01:52:00,
2013-10-27 22:02:00,50.0,-99.9,30.00,NNW,335,8.0,-999.0,-999,-99.99,,,-99.99,,2013-10-28 02:02:00,